Weather History for LEAS - December, 2013

Change the Weather History Date:

Wednesday, December 25, 2013

  Actual Average Record
Temperature  
Mean Temperature 46 °F -  
Max Temperature 51 °F 53 °F 69 °F (2002)
Min Temperature 41 °F 42 °F 32 °F (2001)
Degree Days  
Heating Degree Days 19    
Moisture  
Dew Point 36 °F    
Average Humidity 68    
Maximum Humidity 87    
Minimum Humidity 50    
Precipitation  
Precipitation 0.02 in - - ()
Sea Level Pressure  
Sea Level Pressure 29.40 in    
Wind  
Wind Speed 15 mph ()    
Max Wind Speed 28 mph    
Max Gust Speed 47 mph    
Visibility 6.5 miles    
Events Rain , Thunderstorm    
Averages and records for this station are not official NWS values.
T = Trace of Precipitation, MM = Missing Value Source: Averaged Metar Reports

Daily Weather History Graph

Daily Weather History Graph

Search for Another Location

Airport or City:

Trip Planner

Search our weather history database for the weather conditions in past years. The results will help you decide how hot, cold, wet, or windy it might be!

Date:

Astronomy

Dec. 25, 2013 Rise Set
Actual Time 8:55 AM CET 5:52 PM CET
Civil Twilight 8:23 AM CET 6:25 PM CET
Nautical Twilight 7:46 AM CET 7:01 PM CET
Astronomical Twilight 7:11 AM CET 7:36 PM CET
Moon 12:59 AM CET (12/25) 12:59 PM CET (12/25)
Length of Visible Light 10h 02m
Length of Day
8h 56m
Waning Gibbous, 51% of the Moon is Illuminated
Dec 25
Waning Gibbous
Dec 25
Last Quarter
Jan 1
New
Jan 8
First Quarter
Jan 16
Full

Hourly Weather History & Observations

Time (CET) Temp. Windchill Dew Point Humidity Pressure Visibility Wind Dir Wind Speed Gust Speed Precip Events Conditions
6:00 AM 48.2 °F - 35.6 °F 62% 29.33 in 6.2 mi WSW 12.7 mph - N/A   Partly Cloudy
6:30 AM 48.2 °F - 35.6 °F 62% 29.30 in 6.2 mi SW 16.1 mph 28.8 mph N/A   Scattered Clouds
7:00 AM 48 °F - 37 °F 57% 29.34 in 9 mi WSW 11.5 mph - -   Mostly Cloudy
7:00 AM 46.4 °F 40.7 °F 37.4 °F 71% 29.33 in 6.2 mi WSW 12.7 mph - N/A   Scattered Clouds
7:30 AM 46.4 °F 41.5 °F 37.4 °F 71% 29.30 in 6.2 mi SW 10.4 mph - N/A   Scattered Clouds
8:00 AM 46.4 °F 38.5 °F 37.4 °F 71% 29.30 in 6.2 mi SSW 21.9 mph 34.5 mph N/A   Partly Cloudy
8:30 AM 44.6 °F 38.4 °F 37.4 °F 76% 29.30 in 6.2 mi SW 12.7 mph - N/A   Partly Cloudy
9:00 AM 46.4 °F 41.1 °F 37.4 °F 71% 29.30 in 6.2 mi WSW 11.5 mph - N/A   Scattered Clouds
9:30 AM 44.6 °F 38.1 °F 37.4 °F 76% 29.30 in 6.2 mi SSW 13.8 mph - N/A   Scattered Clouds
10:00 AM 46 °F - 38 °F 65% 29.33 in 16 mi SW 16.1 mph - -   Scattered Clouds
10:00 AM 44.6 °F 37.8 °F 37.4 °F 76% 29.30 in 6.2 mi SW 15.0 mph - N/A   Partly Cloudy
10:30 AM 46.4 °F 40.7 °F 35.6 °F 66% 29.30 in 6.2 mi SW 12.7 mph - N/A   Partly Cloudy
11:00 AM 48.2 °F - 35.6 °F 62% 29.30 in 6.2 mi SW 15.0 mph - N/A   Partly Cloudy
11:30 AM 48.2 °F - 35.6 °F 62% 29.33 in 6.2 mi WSW 15.0 mph - N/A   Partly Cloudy
12:00 PM 48.2 °F - 33.8 °F 58% 29.33 in 6.2 mi WSW 17.3 mph - N/A   Mostly Cloudy
12:30 PM 48.2 °F - 35.6 °F 62% 29.33 in 6.2 mi WSW 15.0 mph - N/A   Scattered Clouds
1:00 PM 49 °F - 38 °F 54% 29.34 in 16 mi WSW 15.0 mph - -   Mostly Cloudy
1:00 PM 48.2 °F - 37.4 °F 66% 29.33 in 6.2 mi WSW 17.3 mph - N/A Rain Light Rain Showers
1:30 PM 46.4 °F 37.7 °F 35.6 °F 66% 29.33 in 6.2 mi WSW 26.5 mph 40.3 mph N/A   Scattered Clouds
2:00 PM 48.2 °F - 35.6 °F 62% 29.33 in 6.2 mi WSW 18.4 mph - N/A   Scattered Clouds
2:30 PM 48.2 °F - 33.8 °F 58% 29.30 in 6.2 mi WSW 21.9 mph 36.8 mph N/A   Partly Cloudy
3:00 PM 48.2 °F - 32.0 °F 54% 29.33 in 6.2 mi West 23.0 mph 36.8 mph N/A   Mostly Cloudy
3:30 PM 50.0 °F - 32.0 °F 50% 29.36 in 6.2 mi West 18.4 mph 32.2 mph N/A   Mostly Cloudy
4:00 PM 48 °F - 35 °F 50% 29.40 in 7 mi West 24.2 mph - - Rain Light Rain Showers
4:00 PM 46.4 °F 40.1 °F 35.6 °F 66% 29.39 in 6.2 mi WSW 15.0 mph - N/A Rain Light Rain Showers
4:30 PM 44.6 °F 38.4 °F 37.4 °F 76% 29.39 in 6.2 mi SW 12.7 mph 24.2 mph N/A   Mostly Cloudy
5:00 PM 46.4 °F 40.1 °F 35.6 °F 66% 29.39 in 6.2 mi SW 15.0 mph 28.8 mph N/A   Scattered Clouds
5:30 PM 44.6 °F 37.8 °F 37.4 °F 76% 29.42 in 6.2 mi WSW 15.0 mph - N/A Rain , Thunderstorm Light Thunderstorms and Rain
6:00 PM 44.6 °F 38.1 °F 37.4 °F 76% 29.42 in 6.2 mi SW 13.8 mph - N/A   Mostly Cloudy
6:30 PM 46.4 °F 38.7 °F 37.4 °F 71% 29.44 in 6.2 mi West 20.7 mph 39.1 mph N/A Rain , Thunderstorm Light Thunderstorms and Rain
7:00 PM 47 °F - 38 °F 60% 29.47 in 7 mi West 23.0 mph - - Thunderstorm Light Thunderstorm
7:00 PM 46.4 °F 38.3 °F 37.4 °F 71% 29.44 in 6.2 mi West 23.0 mph - N/A   Mostly Cloudy
7:19 PM 46.4 °F 38.3 °F 37.4 °F 71% 29.47 in 6.2 mi West 23.0 mph 36.8 mph N/A Rain , Thunderstorm Thunderstorms and Rain
7:30 PM 44.6 °F 35.7 °F 37.4 °F 76% 29.47 in 5.6 mi West 24.2 mph 47.2 mph N/A Rain Light Rain
8:00 PM 44.6 °F 35.7 °F 37.4 °F 76% 29.50 in 6.2 mi West 24.2 mph 39.1 mph N/A Rain , Thunderstorm Thunderstorms and Rain
8:30 PM 42.8 °F 34.8 °F 37.4 °F 81% 29.53 in 5.6 mi WSW 17.3 mph - N/A Rain Heavy Rain Showers
8:40 PM 42.8 °F 34.8 °F 37.4 °F 81% 29.53 in 4.3 mi West 17.3 mph 31.1 mph N/A Rain Rain Showers
9:00 PM 41.0 °F 31.4 °F 37.4 °F 87% 29.53 in 5.6 mi WSW 21.9 mph 33.4 mph N/A Rain Light Rain
9:30 PM 42.8 °F 36.6 °F 37.4 °F 81% 29.53 in 5.6 mi WSW 11.5 mph - N/A Thunderstorm Scattered Clouds
10:00 PM 44.6 °F 37.8 °F 35.6 °F 71% 29.56 in 5.6 mi SW 15.0 mph - N/A Thunderstorm Thunderstorm
10:30 PM 44.6 °F 35.1 °F 37.4 °F 76% 29.56 in 5.6 mi West 27.6 mph 40.3 mph N/A Rain Light Rain Showers
11:00 PM 44.6 °F 35.9 °F 35.6 °F 71% 29.59 in 5.6 mi West 23.0 mph 36.8 mph N/A Rain Light Rain Showers
11:19 PM 44.6 °F 36.1 °F 35.6 °F 71% 29.62 in 4.3 mi West 21.9 mph 34.5 mph N/A Rain Rain Showers
11:30 PM 42.8 °F 32.9 °F 37.4 °F 81% 29.62 in 4.3 mi West 26.5 mph 41.4 mph N/A Rain Light Rain Showers